Temperature
15 16 15 14 14 13 12 13 13 14 15 16 16 15 16 15 14 12 10 8 6 5 3 2 1 1 1 0 -0 -1 -1 -2 -2 -3 -3 -4 -5 -5 -6 -6 -7 -8 -8 -9
13 15 14 12 12 13 13 13 13 13 14 15 16 16 15 14 13 12 10 9 7 5 3 2 2 1 1 0 -0 -1 -1 -2 -2 -3 -3 -4 -4 -5 -6 -6 -7 -8 -8 -9
12 13 12 12 13 12 12 12 12 12 13 14 14 14 14 14 13 12 11 9 8 6 5 3 2 2 1 1 -0 -1 -1 -2 -2 -3 -3 -4 -4 -5 -5 -6 -7 -7 -8 -9
10 12 12 15 15 15 13 13 12 12 13 13 14 15 15 15 14 13 12 10 8 7 5 4 3 2 1 0 -0 -1 -1 -2 -2 -3 -3 -4 -4 -5 -5 -6 -7 -7 -8 -8
10 10 12 16 13 13 12 12 13 13 13 14 15 12 13 16 15 14 12 11 9 8 6 4 3 2 1 1 -0 -1 -1 -2 -2 -3 -3 -3 -4 -4 -5 -6 -6 -7 -8 -8
9 9 11 15 13 13 13 12 15 14 13 14 12 9 12 15 14 13 11 10 9 7 5 4 3 2 1 1 -0 -1 -1 -2 -2 -3 -3 -3 -4 -4 -5 -6 -6 -7 -7 -8
7 8 10 14 11 12 13 14 18 18 17 16 12 13 15 14 13 12 11 10 8 7 6 5 4 3 1 1 0 -0 -1 -2 -2 -3 -3 -3 -4 -4 -5 -5 -6 -7 -7 -8
8 8 10 11 10 11 14 18 18 18 17 16 16 15 14 13 13 12 10 9 8 7 6 5 4 3 2 1 0 -1 -1 -2 -2 -3 -3 -3 -4 -4 -5 -6 -6 -6 -7 -7
10 12 15 13 14 17 17 17 18 18 17 16 15 15 14 13 12 11 10 9 8 7 5 4 4 3 2 1 -0 -1 -1 -2 -2 -3 -3 -3 -4 -4 -5 -5 -6 -7 -7 -8
11 12 14 15 15 16 17 17 18 18 17 16 15 15 14 13 12 11 10 9 8 6 5 4 4 3 2 1 -0 -1 -1 -2 -2 -3 -3 -3 -4 -4 -5 -5 -6 -7 -7 -8
11 12 14 16 17 18 18 18 18 18 17 16 15 15 14 13 13 12 10 9 8 7 6 5 4 3 2 1 -0 -1 -1 -2 -2 -3 -3 -3 -4 -4 -5 -5 -6 -7 -8 -8
14 15 14 16 18 18 17 17 17 17 16 16 15 15 14 13 13 11 10 9 8 7 6 5 4 3 2 1 -0 -1 -1 -2 -2 -3 -3 -3 -4 -4 -5 -5 -6 -7 -8 -8
15 16 16 16 16 17 17 17 16 16 16 15 15 14 13 13 12 11 10 9 8 8 7 5 4 3 2 1 0 -1 -1 -2 -2 -3 -3 -3 -4 -4 -5 -5 -6 -7 -7 -8
15 15 15 15 15 16 16 16 15 15 15 14 14 13 13 12 11 10 10 9 9 7 6 5 4 3 3 1 0 -0 -1 -2 -2 -3 -3 -4 -4 -4 -5 -5 -6 -6 -7 -8
14 14 14 15 15 15 15 14 14 14 14 14 13 13 12 11 11 11 10 9 7 6 6 5 4 3 3 2 0 -0 -1 -2 -2 -3 -3 -4 -4 -5 -5 -5 -6 -6 -7 -7
13 13 14 14 14 14 14 13 13 13 12 12 12 12 11 11 10 10 9 8 7 6 6 5 4 4 3 2 1 -0 -1 -2 -2 -3 -3 -4 -4 -5 -5 -6 -6 -7 -7 -8
12 12 12 12 12 12 11 11 11 11 11 11 10 10 10 9 9 9 8 7 7 7 6 5 5 4 3 2 1 0 -1 -2 -2 -3 -3 -4 -4 -5 -5 -6 -6 -7 -7 -8
11 10 10 10 10 10 10 9 9 9 9 9 9 9 9 8 8 8 7 6 5 5 5 4 4 3 3 2 1 0 -1 -1 -2 -2 -3 -4 -4 -5 -5 -6 -6 -7 -7 -8
9 9 9 8 8 8 8 8 8 8 8 8 8 8 8 8 7 7 6 4 4 4 5 4 3 2 2 2 1 0 -1 -1 -2 -3 -3 -4 -4 -5 -5 -6 -6 -7 -7 -8
8 8 7 7 7 7 7 7 7 7 7 7 7 7 7 7 7 6 5 4 4 4 4 3 3 2 2 1 1 0 -1 -1 -2 -2 -3 -4 -4 -5 -5 -6 -6 -7 -7 -8
7 7 6 6 6 6 6 6 6 6 7 7 7 7 6 6 6 5 4 4 4 2 2 2 1 2 2 1 1 0 -1 -1 -2 -2 -3 -3 -4 -5 -5 -6 -6 -7 -7 -8
6 6 5 5 5 5 5 5 5 6 6 6 6 6 6 6 5 4 4 4 3 2 1 1 1 1 1 1 1 0 -0 -1 -2 -2 -3 -3 -4 -4 -5 -5 -6 -6 -7 -7
5 5 5 4 4 4 4 4 5 5 5 5 5 5 5 5 5 4 4 3 2 0 0 0 1 1 1 0 1 0 -0 -1 -1 -2 -2 -3 -4 -4 -5 -5 -6 -6 -7 -7
4 4 4 4 3 3 3 4 4 4 4 5 5 5 4 4 4 4 3 2 1 -0 -1 -0 -0 -0 -0 -0 0 0 -0 -1 -1 -2 -2 -3 -4 -4 -5 -5 -6 -6 -7 -7
3 3 3 3 3 2 3 3 3 3 4 4 4 4 4 4 3 3 2 1 0 -1 -1 -1 -1 -1 -1 -1 -0 0 0 -0 -1 -1 -2 -3 -3 -4 -5 -5 -6 -6 -7 -7
2 2 2 2 2 2 2 2 2 3 3 3 4 4 4 4 3 2 1 0 -1 -1 -2 -2 -2 -2 -2 -1 -1 -0 0 -0 -1 -2 -2 -3 -3 -4 -4 -5 -6 -6 -7 -7
2 1 1 1 2 2 2 2 2 2 2 2 3 3 3 3 3 2 1 -1 -1 -2 -2 -2 -2 -2 -2 -2 -1 -1 -0 -1 -1 -1 -2 -3 -3 -4 -4 -5 -6 -6 -7 -7
Wind_Speed
11 10 7 8 9 12 13 11 10 10 12 15 11 9 6 4 7 9 10 12 14 14 13 12 11 11 10 9 8 7 6 6 6 6 6 7 7 8 8 8 10 9 10 10
7 8 5 8 14 15 15 14 16 17 19 18 13 7 5 6 8 10 12 14 14 14 14 14 13 12 10 9 8 7 6 6 6 6 6 7 8 8 9 9 9 9 9 10
5 1 5 11 13 16 9 12 11 16 15 10 7 9 9 9 10 12 13 13 15 16 15 14 13 12 12 10 8 7 6 6 6 6 7 8 9 8 9 9 9 9 9 10
5 5 9 10 2 8 12 11 13 13 12 11 11 8 7 8 11 12 12 13 14 14 14 12 11 11 10 9 8 7 7 7 7 7 8 8 7 8 9 8 8 8 9 10
3 6 10 9 4 5 8 9 13 18 18 17 10 7 9 12 12 12 11 11 12 13 12 12 12 12 11 9 8 8 8 8 8 8 7 7 8 8 8 8 8 8 9 10
4 5 8 9 3 3 4 8 9 12 15 14 3 5 10 5 7 9 9 9 10 11 11 13 12 13 12 11 10 11 10 9 8 7 7 7 8 8 7 7 8 8 9 9
7 8 11 7 5 5 5 8 5 10 12 10 10 13 8 6 7 8 8 9 11 12 12 13 14 14 13 12 13 11 9 7 7 6 7 7 7 6 7 7 8 8 9 8
8 8 12 7 9 10 11 5 5 8 10 11 12 12 9 9 9 9 9 10 11 12 12 12 14 15 14 14 12 9 8 7 7 7 7 6 6 7 7 6 7 7 7 8
13 13 7 11 12 11 6 7 9 9 11 11 12 12 11 10 11 11 11 11 12 12 12 12 15 16 16 13 10 9 8 7 7 7 6 6 6 6 5 5 5 6 6 7
9 14 13 11 12 14 15 16 17 15 14 12 13 14 13 11 11 12 13 13 12 13 14 14 15 15 13 11 11 10 9 8 7 6 6 6 5 5 4 4 5 5 6 7
11 10 10 12 14 19 19 18 17 17 15 15 15 16 14 13 13 13 14 14 14 16 17 17 16 16 13 11 12 11 9 8 7 6 6 5 5 5 5 5 5 6 5 5
17 11 9 11 9 11 13 16 16 16 15 14 14 16 15 13 12 13 14 14 15 17 17 16 17 16 15 13 13 12 10 9 7 6 5 5 4 5 9 8 11 13 12 11
24 19 15 18 19 18 17 18 17 16 16 16 14 13 13 12 11 12 13 17 20 20 18 17 17 16 16 15 14 14 11 9 7 6 5 5 4 4 5 7 9 11 11 12
18 17 18 19 21 23 21 20 17 16 15 13 12 11 11 11 10 13 17 19 18 16 16 16 17 17 17 16 16 14 12 12 9 6 6 5 5 4 4 4 5 5 8 12
19 18 21 21 22 22 20 16 16 16 14 13 10 11 11 13 14 16 14 13 14 16 17 17 18 17 17 17 17 15 12 9 8 6 6 5 5 4 4 5 5 5 5 6
16 16 17 19 22 22 20 17 16 16 13 12 11 12 13 14 14 12 12 15 17 20 20 20 19 17 18 18 17 14 12 16 12 8 6 6 5 5 4 4 4 4 5 5
15 15 15 16 17 17 15 12 12 13 12 12 12 12 11 11 11 12 13 16 18 18 18 20 18 17 18 19 17 13 11 12 17 9 7 6 6 5 5 4 4 4 4 6
8 9 9 9 11 12 13 12 12 12 12 12 11 9 9 12 15 15 13 12 13 14 16 16 15 16 18 18 16 12 11 10 10 9 8 7 6 5 5 5 5 5 4 5
10 10 10 11 11 10 11 12 12 12 12 10 10 10 11 12 13 11 10 13 17 19 16 16 24 20 18 21 19 12 12 12 10 9 8 10 9 6 6 5 5 4 4 3
9 9 10 11 11 10 11 11 12 12 11 10 10 11 11 11 10 10 12 15 16 11 10 16 19 17 18 20 22 13 14 13 12 11 10 9 8 7 6 6 5 4 3 3
9 9 10 11 11 12 11 12 12 13 12 11 11 12 12 11 9 9 11 14 11 10 13 22 18 15 17 19 23 14 14 13 12 11 11 10 9 8 7 6 5 4 4 3
9 10 11 12 12 14 12 11 11 12 12 12 11 11 11 10 9 10 13 11 8 15 14 14 14 19 22 23 16 15 15 14 12 11 10 10 9 8 7 7 6 5 4 3
11 11 12 12 13 13 14 13 12 11 12 12 12 12 12 10 8 9 10 7 7 17 15 13 19 27 30 20 15 15 15 15 13 12 11 10 9 9 8 7 6 5 4 3
12 13 12 12 11 12 15 15 12 11 11 11 11 11 11 9 8 9 7 10 15 18 13 17 27 30 29 16 15 15 15 14 13 12 11 10 9 8 8 7 6 5 5 4
13 13 13 13 13 13 14 13 12 11 11 9 10 10 9 8 9 7 6 8 15 17 11 18 27 29 22 13 15 15 14 14 13 12 11 11 10 9 8 8 7 6 5 4
13 13 13 13 13 13 12 11 10 10 9 10 10 8 7 6 7 7 6 8 11 16 12 11 15 21 16 14 14 15 14 14 15 13 12 11 11 10 9 8 9 7 6 5
14 13 12 11 11 10 10 10 11 11 10 10 11 8 6 6 6 7 7 7 8 10 10 11 12 14 15 14 14 13 13 12 12 12 12 11 10 10 10 10 8 7 6 5
Wind_Direction
274 276 246 244 231 201 208 217 229 248 260 271 284 296 286 229 196 188 187 190 192 192 189 187 186 187 187 189 186 188 202 225 244 259 271 280 285 286 285 285 289 284 285 286
279 252 254 265 245 227 224 229 244 262 274 271 276 271 259 235 210 207 205 200 197 194 192 190 189 187 184 186 183 182 202 226 244 260 270 276 280 281 283 283 282 283 285 288
279 188 314 268 241 210 207 210 207 231 242 258 254 243 243 240 228 220 214 204 198 197 197 193 188 183 182 179 172 179 205 227 241 252 261 265 275 281 281 282 283 285 286 288
286 318 255 247 304 192 206 231 218 238 256 265 263 276 266 245 235 231 215 203 198 194 192 185 176 171 165 162 170 188 210 226 236 244 253 261 269 275 279 281 284 286 287 288
258 268 276 273 217 173 196 260 227 232 251 261 273 320 282 248 229 223 210 198 191 186 181 173 168 162 158 167 179 197 214 225 231 237 249 261 270 275 278 284 286 285 287 288
216 237 250 261 137 102 124 282 248 214 236 251 226 285 274 228 197 203 191 178 173 168 166 168 167 159 166 181 192 208 214 219 225 232 245 257 265 274 280 283 283 287 289 288
220 237 262 257 143 127 175 247 224 206 226 230 210 231 243 190 196 194 184 172 165 165 172 174 165 164 179 190 204 208 205 210 220 231 242 252 263 272 278 283 288 291 294 296
191 212 253 194 150 192 221 251 230 234 235 235 237 246 234 213 209 197 186 174 169 172 176 169 167 173 187 201 203 193 192 203 220 233 243 251 258 268 274 284 294 298 302 305
198 217 245 175 205 229 261 272 264 260 257 246 251 253 242 229 215 204 193 185 179 177 174 173 176 182 194 200 187 182 186 205 222 234 241 245 252 264 277 285 290 297 303 307
240 249 254 232 234 251 254 254 261 263 262 252 250 253 248 234 219 208 199 191 183 178 182 186 186 191 196 186 177 177 191 207 219 229 240 248 253 253 259 270 280 289 297 303
250 260 282 266 240 245 253 256 258 260 255 248 246 251 244 237 222 211 202 193 188 191 194 193 189 193 192 181 173 181 194 206 215 221 229 245 253 253 261 245 258 278 269 277
255 248 239 262 256 249 256 261 259 260 263 253 237 245 243 237 224 209 202 193 194 198 198 194 190 193 189 181 176 182 196 205 208 210 220 231 249 274 285 285 288 292 294 297
258 266 262 270 275 274 270 271 269 263 260 263 255 240 237 237 224 207 200 196 199 201 199 193 190 191 187 181 180 187 195 197 200 203 212 224 233 253 281 301 305 308 307 309
262 269 270 266 267 271 271 272 273 270 264 260 259 249 237 235 225 211 208 204 200 197 197 194 192 193 185 180 183 189 192 201 200 199 206 214 221 234 251 273 297 303 312 316
261 257 259 264 268 271 274 276 278 277 274 269 256 244 236 232 230 225 214 196 190 195 198 196 196 193 180 179 184 188 190 194 196 193 202 209 213 226 243 259 272 287 299 313
271 267 264 266 270 273 278 280 280 281 281 273 263 249 237 232 233 223 201 188 193 202 201 198 199 190 177 178 182 186 191 197 192 192 199 205 209 220 236 250 265 279 289 293
277 278 275 276 280 286 293 297 295 294 294 286 274 262 247 235 232 225 212 202 204 206 201 199 195 182 177 179 180 183 184 193 197 195 197 201 204 213 224 234 249 266 274 292
301 305 308 310 311 314 317 317 311 303 294 285 280 265 245 233 233 233 218 204 205 210 206 197 186 178 177 178 179 179 179 183 186 190 195 200 204 207 215 226 240 257 272 295
352 346 340 336 332 326 317 312 306 300 294 292 285 269 253 242 237 232 208 198 206 215 208 190 187 181 179 182 178 177 177 179 184 189 192 204 209 206 211 218 232 245 262 277
343 337 334 327 322 315 308 307 307 306 304 300 289 279 268 255 239 222 207 213 218 213 185 184 187 182 181 183 180 178 179 181 183 187 190 195 199 203 208 213 220 232 245 260
327 324 321 318 315 312 310 311 311 306 302 297 284 276 271 264 241 220 215 230 219 186 180 188 188 186 183 183 181 179 180 182 184 186 189 193 196 200 202 205 212 222 229 243
318 316 315 313 311 309 308 304 297 294 295 292 284 277 272 266 247 231 226 229 202 186 184 190 188 187 185 182 181 180 181 182 184 185 187 189 192 195 198 198 204 212 215 223
307 302 301 299 297 296 297 295 288 286 286 286 283 278 269 260 243 237 246 219 190 196 192 192 191 189 186 183 182 181 181 182 184 186 187 188 190 191 192 193 196 199 202 212
294 291 287 285 287 290 291 289 284 280 275 275 271 265 262 264 258 237 232 206 198 201 198 194 192 190 187 184 182 181 182 183 183 183 183 184 184 185 185 186 188 192 197 204
284 283 283 283 284 284 282 282 283 282 278 275 270 261 248 242 247 245 217 202 203 204 197 196 194 192 187 184 184 182 182 182 181 179 181 182 183 183 184 184 185 187 192 198
282 281 279 273 273 276 278 279 277 276 275 278 276 263 249 241 240 238 221 206 204 203 192 187 189 191 187 185 185 182 180 180 182 182 180 180 180 180 182 183 181 185 189 190
280 279 279 278 272 266 266 266 268 272 268 266 273 267 249 239 232 226 218 207 203 200 189 185 187 187 184 182 183 181 179 177 176 176 177 178 178 180 181 179 180 180 180 181
Height
1544 1539 1540 1540 1539 1542 1544 1540 1540 1527 1517 1506 1502 1501 1500 1499 1499 1499 1499 1498 1498 1499 1500 1502 1503 1505 1507 1508 1509 1509 1509 1508 1506 1505 1502 1500 1497 1493 1490 1486 1482 1478 1474 1470
1545 1536 1538 1539 1532 1532 1533 1532 1527 1522 1514 1499 1498 1496 1495 1495 1495 1494 1492 1492 1492 1493 1494 1495 1497 1499 1501 1502 1503 1504 1504 1503 1502 1500 1498 1495 1492 1489 1486 1482 1478 1474 1470 1466
1551 1540 1540 1536 1516 1519 1520 1514 1515 1516 1505 1494 1494 1492 1491 1490 1489 1487 1486 1486 1485 1485 1487 1489 1491 1493 1495 1497 1498 1498 1498 1498 1497 1495 1493 1491 1488 1485 1481 1478 1474 1470 1466 1462
1554 1545 1548 1512 1502 1501 1506 1503 1503 1499 1493 1491 1489 1487 1486 1484 1483 1480 1479 1479 1478 1479 1481 1483 1485 1487 1490 1491 1492 1493 1493 1493 1492 1491 1489 1487 1484 1481 1477 1474 1470 1466 1462 1458
1556 1551 1531 1505 1501 1500 1505 1502 1492 1492 1489 1486 1484 1483 1479 1477 1475 1474 1473 1472 1472 1473 1475 1477 1479 1481 1484 1485 1487 1487 1488 1488 1487 1486 1484 1482 1480 1477 1474 1470 1466 1463 1459 1455
1554 1555 1540 1504 1500 1498 1502 1503 1483 1483 1483 1481 1482 1487 1474 1470 1469 1468 1467 1467 1467 1467 1469 1470 1473 1475 1478 1479 1480 1481 1482 1482 1482 1481 1480 1478 1475 1473 1470 1466 1463 1459 1455 1451
1552 1549 1526 1499 1499 1501 1507 1495 1478 1477 1476 1476 1476 1473 1467 1465 1463 1462 1461 1461 1461 1461 1462 1464 1466 1469 1471 1473 1474 1476 1477 1477 1477 1476 1475 1473 1471 1469 1466 1462 1459 1455 1451 1447
1541 1542 1522 1494 1497 1497 1485 1475 1474 1472 1471 1470 1467 1465 1462 1460 1458 1456 1455 1454 1454 1454 1455 1457 1459 1462 1464 1465 1468 1470 1471 1471 1472 1471 1470 1469 1467 1465 1462 1459 1455 1452 1448 1443
1514 1503 1486 1483 1481 1476 1475 1472 1469 1467 1465 1464 1461 1458 1455 1453 1451 1449 1448 1447 1447 1448 1449 1450 1452 1454 1456 1460 1462 1464 1465 1466 1466 1466 1465 1464 1462 1460 1458 1455 1452 1448 1444 1440
1496 1485 1480 1478 1475 1473 1471 1467 1463 1462 1459 1457 1454 1450 1448 1445 1443 1441 1440 1439 1439 1440 1440 1442 1444 1447 1450 1454 1456 1457 1459 1460 1461 1461 1461 1460 1458 1456 1454 1451 1448 1445 1441 1437
1486 1477 1476 1470 1468 1466 1463 1460 1457 1454 1452 1449 1446 1442 1439 1436 1434 1432 1431 1430 1430 1430 1431 1433 1436 1439 1443 1446 1449 1451 1453 1454 1455 1456 1455 1455 1454 1453 1450 1448 1446 1442 1438 1435
1473 1468 1470 1463 1461 1460 1457 1452 1449 1446 1442 1440 1437 1433 1430 1427 1424 1423 1421 1421 1421 1421 1422 1425 1428 1431 1435 1438 1441 1444 1446 1448 1449 1450 1450 1450 1449 1449 1447 1445 1442 1439 1436 1433
1463 1462 1462 1456 1452 1450 1447 1443 1440 1437 1433 1429 1427 1424 1421 1418 1415 1413 1411 1411 1411 1412 1414 1417 1419 1423 1427 1430 1434 1436 1439 1441 1443 1444 1445 1445 1445 1444 1443 1442 1439 1436 1433 1430
1457 1455 1450 1446 1442 1439 1436 1433 1430 1426 1423 1421 1418 1415 1412 1409 1406 1403 1401 1401 1402 1404 1406 1408 1411 1414 1418 1422 1426 1429 1432 1435 1437 1438 1440 1440 1440 1439 1438 1437 1435 1433 1430 1427
1447 1446 1441 1435 1431 1428 1425 1423 1420 1415 1412 1410 1408 1405 1402 1399 1396 1394 1394 1394 1394 1394 1396 1398 1401 1405 1410 1414 1418 1422 1425 1428 1430 1432 1434 1435 1435 1435 1434 1433 1431 1429 1426 1424
1436 1434 1431 1426 1421 1418 1416 1414 1412 1407 1405 1402 1399 1396 1393 1390 1387 1384 1384 1383 1383 1382 1385 1388 1391 1396 1401 1406 1410 1414 1418 1421 1424 1427 1428 1429 1430 1430 1430 1429 1427 1425 1423 1420
1427 1423 1421 1417 1414 1411 1409 1407 1405 1401 1397 1394 1390 1387 1383 1380 1377 1375 1373 1372 1372 1373 1376 1379 1383 1388 1392 1397 1402 1406 1410 1414 1418 1420 1422 1424 1425 1425 1425 1425 1424 1422 1420 1418
1420 1418 1416 1413 1410 1406 1403 1400 1397 1394 1390 1385 1381 1377 1374 1371 1367 1366 1365 1365 1364 1365 1366 1369 1375 1380 1384 1389 1395 1399 1403 1407 1410 1413 1416 1418 1419 1421 1421 1421 1420 1418 1417 1415
1415 1413 1411 1408 1406 1402 1399 1395 1391 1387 1382 1378 1373 1369 1366 1362 1359 1358 1357 1356 1354 1353 1355 1361 1367 1371 1376 1382 1387 1392 1396 1400 1404 1407 1410 1412 1414 1415 1416 1416 1416 1415 1413 1411
1411 1409 1407 1404 1401 1398 1394 1389 1385 1381 1376 1372 1366 1361 1357 1354 1352 1349 1347 1345 1344 1346 1350 1355 1359 1362 1367 1373 1378 1383 1388 1393 1397 1400 1403 1406 1408 1410 1411 1411 1411 1411 1410 1408
1408 1405 1402 1399 1395 1392 1389 1384 1379 1374 1370 1366 1360 1355 1350 1347 1344 1341 1338 1335 1335 1339 1342 1347 1350 1354 1359 1365 1370 1375 1380 1385 1389 1393 1397 1400 1402 1404 1406 1407 1407 1407 1406 1404
1404 1401 1398 1394 1390 1385 1382 1378 1373 1368 1363 1358 1353 1349 1344 1339 1336 1333 1330 1329 1329 1331 1334 1337 1340 1346 1352 1357 1362 1367 1372 1377 1382 1387 1390 1394 1396 1398 1400 1401 1402 1403 1402 1401
1399 1395 1392 1388 1383 1378 1373 1370 1365 1361 1355 1351 1346 1342 1337 1333 1329 1326 1322 1322 1322 1323 1324 1327 1332 1338 1344 1349 1354 1359 1364 1370 1375 1379 1384 1387 1390 1393 1395 1397 1398 1398 1398 1397
1391 1387 1383 1379 1374 1369 1363 1359 1356 1352 1347 1343 1339 1335 1330 1326 1321 1318 1316 1314 1314 1316 1317 1319 1325 1331 1336 1341 1346 1351 1357 1362 1368 1373 1377 1381 1385 1388 1390 1392 1393 1394 1394 1394
1382 1378 1373 1369 1364 1359 1354 1350 1346 1342 1338 1334 1331 1327 1323 1319 1315 1311 1309 1307 1307 1308 1310 1313 1318 1323 1328 1333 1339 1344 1350 1355 1361 1366 1371 1375 1379 1382 1385 1387 1388 1390 1390 1390
1372 1367 1362 1358 1354 1349 1345 1341 1336 1333 1329 1325 1321 1318 1315 1311 1307 1304 1302 1300 1300 1302 1303 1306 1310 1316 1321 1326 1332 1338 1344 1350 1355 1360 1365 1369 1373 1376 1379 1382 1384 1385 1386 1386
1359 1355 1350 1345 1342 1339 1336 1332 1328 1324 1321 1317 1313 1310 1307 1303 1300 1297 1295 1294 1294 1295 1297 1300 1304 1308 1313 1319 1325 1332 1338 1344 1349 1354 1359 1364 1368 1371 1374 1377 1379 1381 1382 1382